Tracking 22124 objects as of 23-Jan-2021
HD Live streaming from Space Station
objects crossing your sky now

SPACEBEE-18

Track SPACEBEE-18 now!
10-day predictions


NORAD ID: 46304
Int'l Code: 2020-061AJ
Perigee: 537.9 km
Apogee: 540.7 km
Inclination: 97.5 °
Period: 95.3 minutes
Semi major axis: 6910 km
RCS: Unknown
Launch date: September 3, 2020
Source: United States (US)
Launch site: FRENCH GUIANA (FRGUI)
aabbcc
Your satellite tracking list
Your tracking list is empty




NASA's NSSDC Master Catalog

Two Line Element Set (TLE):
1 46304U 20061AJ  21022.93487073  .00001866  00000-0  11455-3 0  9994
2 46304  97.5055  99.5089 0002057 122.0938 238.0492 15.11324845 21318
Source of the keplerian elements: AFSPC